Location: Unspecified
(42.3650°N, 71.1030°W)
Time: 05:30:19
(UTC+00:00)

Hubble Space Telescope - Pass Details

Date: 29 May 2024
Orbit: 510 x 514 km, 28.5° (Epoch: 23 June)

Event Time Altitude Azimuth Distance (km) Brightness Sun altitude
Rises 01:29:53 0° 231° (SW) 2,608 4.4 -12.2°
Reaches altitude 10° 01:33:45 10° 193° (SSW) 1,721 3.0 -12.7°
Enters shadow 01:34:30 11° 182° (S) 1,673 2.9 -12.8°
